TimeCST,TemperatureF,Dew PointF,Humidity,Sea Level PressureIn,VisibilityMPH,Wind Direction,Wind SpeedMPH,Gust SpeedMPH,PrecipitationIn,Events,Conditions,WindDirDegrees,DateUTC
12:15 AM,37.4,32.0,81,30.34,10.0,ENE,8.1,-,N/A,,Clear,70,2013-03-08 06:15:00
12:35 AM,37.4,32.0,81,30.34,10.0,ENE,6.9,-,N/A,,Clear,70,2013-03-08 06:35:00
12:55 AM,35.6,32.0,87,30.35,10.0,East,5.8,-,N/A,,Clear,80,2013-03-08 06:55:00
1:15 AM,35.6,30.2,81,30.36,10.0,East,8.1,-,N/A,,Clear,90,2013-03-08 07:15:00
1:35 AM,35.6,30.2,81,30.36,10.0,East,6.9,-,N/A,,Clear,90,2013-03-08 07:35:00
1:55 AM,35.6,30.2,81,30.36,10.0,East,6.9,-,N/A,,Clear,100,2013-03-08 07:55:00
2:15 AM,35.6,30.2,81,30.36,10.0,East,5.8,-,N/A,,Clear,100,2013-03-08 08:15:00
2:35 AM,35.6,30.2,81,30.36,10.0,East,4.6,-,N/A,,Clear,80,2013-03-08 08:35:00
2:55 AM,35.6,30.2,81,30.36,10.0,NE,4.6,-,N/A,,Clear,50,2013-03-08 08:55:00
3:15 AM,33.8,30.2,87,30.36,9.0,NE,8.1,-,N/A,,Clear,40,2013-03-08 09:15:00
3:35 AM,32.0,30.2,93,30.35,7.0,NE,8.1,-,N/A,,Clear,40,2013-03-08 09:35:00
3:55 AM,32.0,30.2,93,30.35,7.0,NE,8.1,-,N/A,,Clear,40,2013-03-08 09:55:00
4:15 AM,32.0,30.2,93,30.36,7.0,NE,5.8,-,N/A,,Clear,40,2013-03-08 10:15:00
4:35 AM,32.0,30.2,93,30.36,5.0,NE,8.1,-,N/A,,Clear,40,2013-03-08 10:35:00
4:55 AM,32.0,30.2,93,30.36,5.0,NE,6.9,-,N/A,,Clear,40,2013-03-08 10:55:00
5:15 AM,32.0,30.2,93,30.37,5.0,NE,9.2,-,N/A,,Clear,40,2013-03-08 11:15:00
5:35 AM,32.0,30.2,93,30.37,5.0,NE,9.2,-,N/A,,Clear,50,2013-03-08 11:35:00
5:55 AM,32.0,30.2,93,30.37,5.0,ENE,6.9,-,N/A,,Clear,70,2013-03-08 11:55:00
6:15 AM,32.0,28.4,87,30.38,4.0,ENE,8.1,-,N/A,,Clear,70,2013-03-08 12:15:00
6:55 AM,32.0,30.2,93,30.41,4.0,NE,3.5,-,N/A,,Clear,50,2013-03-08 12:55:00
7:15 AM,32.0,30.2,93,30.42,4.0,NE,4.6,-,N/A,,Clear,40,2013-03-08 13:15:00
7:35 AM,33.8,32.0,93,30.41,4.0,ENE,4.6,-,N/A,,Clear,60,2013-03-08 13:35:00
7:55 AM,35.6,32.0,87,30.43,5.0,East,6.9,-,N/A,,Haze,100,2013-03-08 13:55:00
8:15 AM,37.4,32.0,81,30.42,8.0,ESE,10.4,-,N/A,,Clear,110,2013-03-08 14:15:00
8:35 AM,39.2,32.0,75,30.42,9.0,East,10.4,-,N/A,,Clear,90,2013-03-08 14:35:00
8:55 AM,39.2,32.0,75,30.44,9.0,East,9.2,-,N/A,,Clear,100,2013-03-08 14:55:00
9:15 AM,41.0,32.0,70,30.42,10.0,ESE,6.9,-,N/A,,Clear,120,2013-03-08 15:15:00
9:35 AM,41.0,32.0,70,30.41,10.0,East,10.4,-,N/A,,Clear,100,2013-03-08 15:35:00
9:55 AM,44.6,32.0,61,30.39,10.0,East,11.5,-,N/A,,Clear,80,2013-03-08 15:55:00
10:15 AM,44.6,32.0,61,30.40,10.0,East,8.1,-,N/A,,Clear,90,2013-03-08 16:15:00
10:35 AM,46.4,32.0,57,30.40,10.0,East,9.2,-,N/A,,Clear,80,2013-03-08 16:35:00
11:15 AM,48.2,32.0,54,30.39,10.0,ENE,5.8,-,N/A,,Clear,70,2013-03-08 17:15:00
11:35 AM,46.4,33.8,62,30.38,10.0,NE,6.9,-,N/A,,Clear,50,2013-03-08 17:35:00
11:55 AM,48.2,33.8,58,30.36,10.0,NE,9.2,16.1,N/A,,Clear,50,2013-03-08 17:55:00
12:15 PM,50.0,32.0,50,30.36,10.0,ENE,6.9,-,N/A,,Clear,70,2013-03-08 18:15:00
12:35 PM,50.0,33.8,54,30.35,10.0,ESE,10.4,-,N/A,,Clear,120,2013-03-08 18:35:00
12:55 PM,51.8,33.8,50,30.33,10.0,East,9.2,-,N/A,,Clear,80,2013-03-08 18:55:00
1:15 PM,51.8,33.8,50,30.32,10.0,East,4.6,-,N/A,,Clear,100,2013-03-08 19:15:00
1:35 PM,51.8,33.8,50,30.32,10.0,East,3.5,-,N/A,,Clear,90,2013-03-08 19:35:00
1:55 PM,53.6,33.8,47,30.31,10.0,East,5.8,-,N/A,,Clear,100,2013-03-08 19:55:00
2:15 PM,53.6,33.8,47,30.31,10.0,ESE,4.6,-,N/A,,Clear,120,2013-03-08 20:15:00
2:35 PM,55.4,33.8,44,30.31,10.0,East,4.6,-,N/A,,Clear,90,2013-03-08 20:35:00
2:55 PM,55.4,32.0,41,30.30,10.0,ESE,8.1,-,N/A,,Clear,120,2013-03-08 20:55:00
3:15 PM,55.4,32.0,41,30.29,10.0,East,4.6,-,N/A,,Clear,90,2013-03-08 21:15:00
3:35 PM,55.4,32.0,41,30.29,10.0,ESE,5.8,-,N/A,,Clear,110,2013-03-08 21:35:00
3:55 PM,55.4,32.0,41,30.28,10.0,ESE,5.8,-,N/A,,Clear,110,2013-03-08 21:55:00
4:15 PM,53.6,32.0,44,30.27,10.0,East,6.9,-,N/A,,Clear,90,2013-03-08 22:15:00
4:35 PM,53.6,32.0,44,30.26,10.0,East,6.9,-,N/A,,Clear,80,2013-03-08 22:35:00
4:55 PM,53.6,35.6,51,30.26,10.0,ENE,9.2,-,N/A,,Clear,60,2013-03-08 22:55:00
5:15 PM,51.8,35.6,54,30.25,10.0,ENE,10.4,-,N/A,,Clear,70,2013-03-08 23:15:00
5:35 PM,50.0,37.4,62,30.25,10.0,ENE,10.4,-,N/A,,Clear,70,2013-03-08 23:35:00
5:55 PM,50.0,37.4,62,30.24,10.0,ENE,11.5,-,N/A,,Clear,70,2013-03-08 23:55:00
6:15 PM,50.0,37.4,62,30.24,10.0,ENE,9.2,-,N/A,,Clear,70,2013-03-09 00:15:00
6:35 PM,50.0,37.4,62,30.24,10.0,ENE,6.9,-,N/A,,Clear,60,2013-03-09 00:35:00
6:55 PM,50.0,37.4,62,30.25,10.0,ENE,6.9,-,N/A,,Clear,60,2013-03-09 00:55:00
7:15 PM,48.2,37.4,66,30.25,10.0,ENE,8.1,-,N/A,,Clear,60,2013-03-09 01:15:00
7:35 PM,48.2,39.2,71,30.26,10.0,NE,5.8,-,N/A,,Clear,50,2013-03-09 01:35:00
7:55 PM,48.2,39.2,71,30.25,10.0,ENE,4.6,-,N/A,,Clear,60,2013-03-09 01:55:00
8:15 PM,48.2,37.4,66,30.26,10.0,NNE,5.8,-,N/A,,Clear,30,2013-03-09 02:15:00
8:35 PM,48.2,37.4,66,30.25,10.0,NNE,5.8,-,N/A,,Clear,30,2013-03-09 02:35:00
8:55 PM,46.4,39.2,76,30.24,10.0,NNE,4.6,-,N/A,,Clear,20,2013-03-09 02:55:00
9:15 PM,46.4,39.2,76,30.24,10.0,NNE,5.8,-,N/A,,Clear,20,2013-03-09 03:15:00
9:35 PM,46.4,39.2,76,30.23,10.0,NE,8.1,-,N/A,,Clear,50,2013-03-09 03:35:00
9:55 PM,46.4,39.2,76,30.23,10.0,NE,8.1,-,N/A,,Clear,50,2013-03-09 03:55:00
10:15 PM,46.4,39.2,76,30.23,10.0,ENE,4.6,-,N/A,,Clear,60,2013-03-09 04:15:00
10:35 PM,46.4,39.2,76,30.22,10.0,ENE,6.9,-,N/A,,Clear,70,2013-03-09 04:35:00
10:55 PM,46.4,37.4,71,30.21,10.0,ENE,6.9,-,N/A,,Mostly Cloudy,60,2013-03-09 04:55:00
11:15 PM,46.4,37.4,71,30.20,10.0,East,6.9,-,N/A,,Mostly Cloudy,80,2013-03-09 05:15:00
11:35 PM,46.4,35.6,66,30.19,10.0,East,5.8,-,N/A,,Mostly Cloudy,80,2013-03-09 05:35:00
11:55 PM,48.2,35.6,62,30.18,10.0,East,5.8,-,N/A,,Clear,80,2013-03-09 05:55:00